Regional Weather Roundup
Issued by NWS

Home | Current Version | Previous Version | Graphics & Text | Print | Product List | Glossary Off
Versions: 1 2 3 4 5 6 7 8 9 10 11 12 13 14 15 16 17 18 19 20 21 22 23 24 25 26 27 28 29 30 31 32 33 34 35 36 37 38 39 40 41 42 43 44 45 46 47 48 49 50

000
ASUS43 KTOP 100759
RWRKS

WEATHER ROUNDUP FOR KANSAS
NATIONAL WEATHER SERVICE GOODLAND KS
300 AM CDT THU JUL 10 2014

NOTE:  "FAIR" INDICATES FEW OR NO CLOUDS BELOW 12,000 FEET WITH NO
SIGNIFICANT WEATHER AND/OR OBSTRUCTIONS TO VISIBILITY.

KSZ001>006-013>018-027>032-041>047-100900-
NORTHWEST KANSAS

CITY           SKY/WX    TMP DP  RH WIND       PRES   REMARKS
GOODLAND       CLEAR     72  50  45 SW12      29.92S
HAYS           CLOUDY    68  61  77 N17       30.06R THUNDER
HILL CITY      LGT RAIN  68  65  90 E15       30.01R
RUSSELL        TSTM      68  64  87 SE16      29.98F
$$

KSZ061>065-074>080-084>089-100900-
SOUTHWEST KANSAS

CITY           SKY/WX    TMP DP  RH WIND       PRES   REMARKS
DODGE CITY     MOCLDY    71  65  81 S8        29.98R
ELKHART          N/A     73  53  49 N5          N/A
GARDEN CITY    CLOUDY    69  65  86 S16       29.94S
GREAT BEND     CLOUDY    64  61  88 E16G26    29.99R THUNDER
LIBERAL        CLOUDY    72  61  68 CALM      29.97S
$$

KSZ066>073-081>083-090>101-100900-
SOUTHEAST KANSAS

CITY           SKY/WX    TMP DP  RH WIND       PRES   REMARKS
CHANUTE        PTCLDY    67  63  87 CALM      30.06F
COFFEYVILLE    PTCLDY    68  60  75 CALM      30.04S
HUTCHINSON     TSTM      68  64  87 SE8       30.03S FOG
MEDICINE LODGE   N/A     76  66  71 S8G18     29.93F
NEWTON         CLOUDY    70  55  60 SE10      30.06F
PARSONS        PTCLDY    67  60  78 CALM      30.07R
WICHITA INTL   TSTM      68  65  90 N10       30.08R FOG
WICHITA JABRA  RAIN      70  65  84 W13       30.04R
WICHITA MCCONL TSTM      70  70 100 S8        30.08R VSB 1
WINFIELD       CLOUDY    76  65  68 SE12      29.98F
$$

KSZ007>012-019>026-033>040-048>060-102>105-100900-
NORTHEAST KANSAS

CITY           SKY/WX    TMP DP  RH WIND       PRES   REMARKS
CONCORDIA      MOCLDY    70  62  76 S17       29.98F
EMPORIA        PTCLDY    67  62  84 SE7       30.02F
LAWRENCE       MOCLDY    67  63  87 E7        30.03F
MANHATTAN      MOCLDY    69  66  90 CALM      30.00F
OLATHE IND     PTCLDY    68  61  78 SE6       30.05F
OLATHE EXE     MOCLDY    67  60  78 SE5       30.05F
SALINA         CLOUDY    73  60  63 SE9       30.01F
TOPEKA BILLARD CLOUDY    73  63  70 S5        30.03F
TOPEKA FORBES  CLOUDY    69  64  84 S5        30.03F
$$


USA.gov is the U.S. government's official web portal to all federal, state and local government web resources and services.